Terminal Aerodrome Forecast
Issued by NWS Melbourne, FL

Home | Current Version | Previous Version | Text Only | Print | Product List | Glossary On
Versions: 1 2 3 4 5 6 7 8 9 10 11 12 13 14 15 16 17 18 19 20 21 22
159
FTUS42 KMLB 042333
TAFMCO
TAF
KMCO 042333Z 0500/0524 13009KT P6SM FEW040
     FM050700 14004KT 6SM BR SCT004 BKN008
     FM051300 16006KT P6SM SCT010 BKN015
     FM051500 17010KT P6SM SCT025=

USA.gov is the U.S. government's official web portal to all federal, state and local government web resources and services.